This is the latest recevied weather packets stored in our database for station/object PY2UTU-WX. If no packets are shown the sender has not sent any weather packets the latest 10 day(s).
| Time | Temp. | Humidity | Pressure | Rain* | Wind** | Luminosity | Snow |
|---|---|---|---|---|---|---|---|
| 1777943545 | 21.11° C | 98% | 927.2 hPa | - | - | - | - |
| 1777942645 | 20.56° C | 98% | 927.2 hPa | - | - | - | - |
| 1777941745 | 20° C | 98% | 927.1 hPa | - | - | - | - |
| 1777940844 | 20° C | 98% | 927.2 hPa | - | - | - | - |
| 1777939944 | 19.44° C | 98% | 927.1 hPa | - | - | - | - |
| 1777939045 | 18.89° C | 98% | 927.1 hPa | - | - | - | - |
| 1777938145 | 18.89° C | 98% | 927 hPa | - | - | - | - |
| 1777937245 | 19.44° C | 98% | 926.9 hPa | - | - | - | - |
| 1777936345 | 19.44° C | 98% | 926.8 hPa | - | - | - | - |
| 1777935444 | 18.89° C | 98% | 926.5 hPa | - | - | - | - |
| 1777934544 | 18.89° C | 98% | 926.4 hPa | - | - | - | - |
| 1777933645 | 19.44° C | 98% | 926.2 hPa | - | - | - | - |
| 1777932745 | 19.44° C | 98% | 926.2 hPa | - | - | - | - |
| 1777931845 | 20° C | 98% | 925.9 hPa | - | - | - | - |
| 1777930945 | 19.44° C | 98% | 925.7 hPa | - | - | - | - |
| 1777930044 | 20° C | 98% | 925.6 hPa | - | - | - | - |
| 1777929145 | 20° C | 98% | 925.4 hPa | - | - | - | - |
| 1777928244 | 20° C | 98% | 925.3 hPa | - | - | - | - |
| 1777927344 | 20.56° C | 98% | 925.3 hPa | - | - | - | - |
| 1777926444 | 21.11° C | 98% | 925.3 hPa | - | - | - | - |
| 1777925545 | 21.11° C | 98% | 925.3 hPa | - | - | - | - |
| 1777924644 | 21.67° C | 98% | 925 hPa | - | - | - | - |
| 1777923744 | 22.78° C | 98% | 925.1 hPa | - | - | - | - |
| 1777922845 | 23.89° C | 98% | 925 hPa | - | - | - | - |
| 1777921945 | 25° C | 98% | 924.6 hPa | - | - | - | - |
* Rain since midnight (hover to see other rain measurements)
** Current wind speed in m/s (hover to see current wind gust speed)